QPF
0.01 0.02 0.04 0.05 0.08 0.11 0.09 0.07 0.07 0.06 0.03 0.00 0.00 0.00 0.01 0.02 0.04 0.06 0.05 0.04 0.03 0.03 0.01 0.01 0.02 0.02 0.02 0.03 0.04 0.05 0.06 0.06 0.05 0.06 0.05 0.05 0.05 0.04 0.04 0.06 0.03 0.02 0.04 0.04 0.04 0.05 0.05 0.05 0.05
0.01 0.03 0.04 0.05 0.10 0.11 0.07 0.08 0.07 0.05 0.03 0.00 0.00 0.01 0.01 0.01 0.01 0.02 0.04 0.03 0.02 0.02 0.01 0.01 0.02 0.02 0.01 0.04 0.04 0.04 0.07 0.07 0.07 0.06 0.05 0.04 0.04 0.03 0.04 0.06 0.04 0.03 0.04 0.03 0.04 0.06 0.05 0.05 0.07
0.00 0.02 0.03 0.07 0.09 0.09 0.07 0.06 0.05 0.01 0.00 0.00 0.00 0.00 0.01 0.01 0.01 0.01 0.01 0.01 0.02 0.02 0.01 0.01 0.02 0.01 0.02 0.06 0.04 0.05 0.10 0.16 0.16 0.09 0.05 0.04 0.04 0.03 0.04 0.06 0.06 0.05 0.04 0.03 0.04 0.06 0.05 0.05 0.06
0.01 0.02 0.03 0.06 0.06 0.03 0.02 0.03 0.02 0.02 0.01 0.00 0.00 0.01 0.00 0.00 0.00 0.00 0.00 0.00 0.00 0.02 0.01 0.01 0.03 0.03 0.03 0.09 0.12 0.10 0.17 0.21 0.16 0.14 0.10 0.06 0.04 0.03 0.03 0.04 0.04 0.03 0.03 0.02 0.04 0.06 0.05 0.04 0.06
0.01 0.03 0.05 0.06 0.03 0.01 0.01 0.01 0.02 0.04 0.03 0.01 0.01 0.01 0.01 0.01 0.00 0.00 0.00 0.00 0.00 0.01 0.01 0.02 0.03 0.02 0.03 0.07 0.19 0.22 0.24 0.18 0.10 0.09 0.08 0.03 0.02 0.02 0.02 0.03 0.02 0.03 0.03 0.03 0.03 0.04 0.05 0.05 0.05
0.02 0.03 0.04 0.05 0.03 0.01 0.01 0.00 0.01 0.02 0.02 0.01 0.02 0.02 0.02 0.01 0.00 0.00 0.00 0.00 0.00 0.01 0.01 0.02 0.02 0.02 0.02 0.03 0.08 0.13 0.16 0.15 0.11 0.11 0.07 0.04 0.04 0.03 0.03 0.03 0.02 0.03 0.02 0.02 0.03 0.03 0.05 0.05 0.06
0.02 0.03 0.03 0.03 0.03 0.02 0.01 0.01 0.01 0.02 0.02 0.01 0.01 0.02 0.02 0.02 0.01 0.01 0.00 0.00 0.01 0.01 0.02 0.04 0.03 0.01 0.01 0.02 0.04 0.06 0.07 0.08 0.09 0.06 0.05 0.05 0.04 0.04 0.04 0.04 0.03 0.03 0.03 0.02 0.02 0.02 0.04 0.05 0.05
0.01 0.02 0.03 0.03 0.03 0.03 0.01 0.01 0.02 0.03 0.02 0.01 0.01 0.03 0.02 0.02 0.02 0.02 0.02 0.01 0.01 0.02 0.02 0.04 0.05 0.03 0.03 0.03 0.03 0.04 0.06 0.06 0.05 0.04 0.04 0.03 0.02 0.02 0.02 0.03 0.03 0.03 0.02 0.01 0.02 0.02 0.03 0.03 0.04
0.01 0.03 0.04 0.03 0.03 0.03 0.01 0.02 0.01 0.00 0.01 0.01 0.01 0.03 0.02 0.02 0.03 0.04 0.05 0.04 0.03 0.03 0.02 0.03 0.04 0.04 0.05 0.05 0.04 0.04 0.04 0.04 0.04 0.04 0.03 0.03 0.04 0.03 0.03 0.02 0.02 0.03 0.02 0.01 0.02 0.02 0.02 0.03 0.04
0.02 0.04 0.04 0.02 0.01 0.01 0.00 0.01 0.01 0.01 0.01 0.01 0.01 0.01 0.01 0.03 0.03 0.06 0.08 0.08 0.06 0.06 0.03 0.02 0.03 0.04 0.04 0.06 0.07 0.06 0.04 0.04 0.03 0.03 0.02 0.03 0.05 0.05 0.02 0.02 0.02 0.02 0.02 0.02 0.02 0.02 0.02 0.04 0.04
0.01 0.03 0.03 0.01 0.00 0.00 0.00 0.00 0.00 0.03 0.04 0.03 0.02 0.02 0.01 0.05 0.04 0.04 0.05 0.06 0.05 0.04 0.04 0.02 0.03 0.04 0.04 0.05 0.05 0.05 0.05 0.05 0.04 0.03 0.03 0.03 0.04 0.03 0.03 0.02 0.03 0.03 0.03 0.03 0.03 0.03 0.05 0.04 0.05
0.01 0.02 0.02 0.01 0.00 0.00 0.00 0.01 0.01 0.02 0.03 0.04 0.03 0.03 0.03 0.04 0.04 0.04 0.04 0.05 0.03 0.03 0.03 0.03 0.02 0.03 0.04 0.04 0.04 0.03 0.03 0.03 0.03 0.02 0.02 0.02 0.03 0.03 0.03 0.03 0.03 0.03 0.03 0.03 0.02 0.04 0.05 0.05 0.05
0.01 0.01 0.00 0.00 0.00 0.00 0.01 0.01 0.01 0.01 0.01 0.02 0.02 0.02 0.02 0.02 0.03 0.03 0.03 0.03 0.01 0.02 0.02 0.01 0.01 0.02 0.03 0.03 0.03 0.03 0.02 0.02 0.01 0.01 0.02 0.02 0.02 0.04 0.03 0.02 0.03 0.03 0.02 0.02 0.02 0.02 0.02 0.03 0.04
0.00 0.00 0.00 0.00 0.00 0.00 0.01 0.01 0.01 0.01 0.01 0.01 0.01 0.02 0.02 0.03 0.03 0.03 0.01 0.01 0.01 0.01 0.01 0.01 0.00 0.01 0.01 0.03 0.04 0.03 0.03 0.02 0.02 0.02 0.01 0.02 0.02 0.03 0.03 0.03 0.03 0.02 0.02 0.02 0.01 0.01 0.02 0.03 0.03
0.00 0.01 0.01 0.01 0.01 0.00 0.01 0.02 0.01 0.01 0.01 0.01 0.01 0.02 0.02 0.03 0.03 0.02 0.02 0.01 0.01 0.01 0.01 0.01 0.00 0.00 0.01 0.01 0.03 0.03 0.02 0.01 0.02 0.03 0.01 0.02 0.03 0.03 0.02 0.02 0.03 0.01 0.01 0.01 0.01 0.02 0.02 0.02 0.03
0.02 0.03 0.03 0.02 0.01 0.01 0.02 0.03 0.02 0.01 0.02 0.02 0.02 0.02 0.01 0.02 0.02 0.01 0.01 0.01 0.02 0.01 0.00 0.00 0.00 0.00 0.01 0.01 0.01 0.02 0.02 0.02 0.02 0.02 0.02 0.01 0.02 0.02 0.02 0.02 0.02 0.01 0.00 0.01 0.02 0.01 0.02 0.02 0.04
0.03 0.03 0.03 0.03 0.01 0.01 0.02 0.03 0.02 0.00 0.01 0.02 0.02 0.01 0.02 0.02 0.02 0.01 0.02 0.02 0.02 0.01 0.00 0.00 0.01 0.00 0.01 0.01 0.02 0.03 0.03 0.02 0.02 0.02 0.02 0.01 0.02 0.02 0.02 0.03 0.02 0.01 0.01 0.02 0.01 0.01 0.02 0.03 0.03
0.03 0.02 0.02 0.03 0.02 0.01 0.03 0.03 0.02 0.01 0.01 0.02 0.02 0.01 0.02 0.02 0.02 0.01 0.02 0.04 0.03 0.01 0.01 0.02 0.01 0.01 0.01 0.01 0.02 0.03 0.04 0.05 0.04 0.03 0.02 0.01 0.01 0.01 0.02 0.03 0.02 0.01 0.01 0.02 0.02 0.02 0.02 0.02 0.03
0.00 0.01 0.01 0.01 0.01 0.01 0.02 0.02 0.02 0.02 0.01 0.01 0.02 0.01 0.02 0.02 0.02 0.01 0.02 0.03 0.03 0.02 0.01 0.02 0.03 0.01 0.01 0.02 0.02 0.02 0.04 0.06 0.05 0.04 0.04 0.03 0.02 0.01 0.02 0.02 0.02 0.01 0.01 0.01 0.02 0.02 0.02 0.03 0.04
0.01 0.01 0.01 0.01 0.01 0.01 0.02 0.01 0.01 0.02 0.02 0.01 0.01 0.02 0.02 0.02 0.02 0.01 0.01 0.02 0.02 0.01 0.01 0.01 0.02 0.02 0.02 0.02 0.02 0.02 0.04 0.07 0.05 0.03 0.04 0.03 0.03 0.03 0.03 0.02 0.02 0.01 0.01 0.01 0.01 0.02 0.03 0.04 0.04
0.01 0.01 0.01 0.01 0.01 0.01 0.01 0.02 0.03 0.02 0.02 0.02 0.02 0.02 0.01 0.02 0.01 0.02 0.03 0.03 0.02 0.01 0.01 0.01 0.02 0.03 0.03 0.03 0.02 0.03 0.04 0.06 0.05 0.03 0.03 0.02 0.02 0.03 0.04 0.04 0.04 0.03 0.02 0.02 0.01 0.02 0.03 0.03 0.03
0.01 0.01 0.01 0.01 0.01 0.02 0.02 0.04 0.03 0.01 0.01 0.01 0.02 0.02 0.01 0.01 0.01 0.02 0.02 0.01 0.01 0.01 0.01 0.01 0.01 0.02 0.02 0.03 0.04 0.05 0.04 0.05 0.06 0.04 0.04 0.03 0.02 0.02 0.02 0.04 0.04 0.03 0.02 0.02 0.01 0.02 0.02 0.03 0.02
0.01 0.01 0.01 0.01 0.01 0.02 0.01 0.03 0.03 0.02 0.02 0.02 0.02 0.02 0.01 0.01 0.00 0.00 0.01 0.00 0.00 0.00 0.01 0.01 0.00 0.01 0.01 0.01 0.02 0.04 0.05 0.06 0.07 0.06 0.05 0.04 0.03 0.02 0.02 0.02 0.03 0.03 0.02 0.01 0.01 0.02 0.03 0.03 0.02
0.01 0.01 0.01 0.01 0.01 0.03 0.01 0.02 0.04 0.03 0.02 0.02 0.02 0.03 0.02 0.01 0.00 0.00 0.00 0.00 0.00 0.01 0.01 0.00 0.00 0.00 0.01 0.01 0.01 0.02 0.04 0.06 0.07 0.06 0.06 0.05 0.05 0.03 0.03 0.02 0.03 0.03 0.03 0.02 0.01 0.02 0.02 0.02 0.03
0.01 0.02 0.03 0.03 0.03 0.04 0.02 0.02 0.03 0.02 0.01 0.01 0.01 0.03 0.04 0.02 0.00 0.00 0.00 0.00 0.00 0.01 0.01 0.00 0.00 0.00 0.00 0.01 0.01 0.02 0.04 0.06 0.06 0.05 0.05 0.04 0.04 0.04 0.04 0.04 0.03 0.03 0.03 0.02 0.02 0.02 0.02 0.02 0.03
0.00 0.01 0.02 0.03 0.03 0.03 0.02 0.02 0.02 0.01 0.01 0.00 0.00 0.01 0.02 0.02 0.01 0.01 0.00 0.00 0.00 0.00 0.00 0.00 0.00 0.00 0.00 0.01 0.01 0.02 0.04 0.04 0.04 0.04 0.03 0.03 0.03 0.04 0.05 0.05 0.05 0.04 0.04 0.02 0.01 0.01 0.01 0.02 0.02
0.00 0.00 0.00 0.01 0.02 0.02 0.03 0.02 0.01 0.01 0.01 0.00 0.00 0.01 0.01 0.02 0.02 0.01 0.00 0.00 0.00 0.00 0.00 0.00 0.00 0.01 0.01 0.01 0.02 0.05 0.05 0.04 0.03 0.02 0.02 0.03 0.03 0.03 0.02 0.02 0.03 0.03 0.03 0.03 0.02 0.02 0.01 0.01 0.01
0.00 0.00 0.01 0.03 0.03 0.03 0.03 0.02 0.02 0.01 0.01 0.00 0.00 0.01 0.00 0.01 0.03 0.02 0.01 0.01 0.00 0.00 0.00 0.00 0.00 0.00 0.01 0.01 0.02 0.04 0.04 0.03 0.02 0.02 0.02 0.02 0.01 0.01 0.02 0.04 0.03 0.02 0.02 0.02 0.03 0.03 0.02 0.01 0.01
0.00 0.00 0.01 0.02 0.02 0.04 0.04 0.04 0.01 0.01 0.01 0.01 0.01 0.00 0.01 0.01 0.01 0.03 0.02 0.01 0.00 0.00 0.00 0.00 0.00 0.00 0.01 0.01 0.02 0.05 0.04 0.03 0.03 0.03 0.03 0.02 0.02 0.02 0.02 0.03 0.04 0.03 0.03 0.04 0.04 0.04 0.04 0.03 0.03
0.00 0.00 0.01 0.02 0.03 0.02 0.03 0.03 0.01 0.01 0.00 0.00 0.00 0.00 0.01 0.00 0.01 0.02 0.02 0.01 0.00 0.00 0.00 0.00 0.00 0.00 0.00 0.02 0.02 0.04 0.05 0.04 0.03 0.04 0.04 0.02 0.02 0.02 0.02 0.03 0.03 0.04 0.05 0.05 0.04 0.04 0.03 0.03 0.04
MSLP
1007.72 1008.36 1009.04 1009.64 1010.05 1010.21 1010.11 1009.77 1009.30 1008.81 1008.43 1008.24 1008.29 1008.58 1009.03 1009.55 1010.03 1010.38 1010.57 1010.59 1010.50 1010.36 1010.25 1010.22 1010.30 1010.48 1010.70 1010.91 1011.06 1011.14 1011.14 1011.09 1011.05 1011.04 1011.10 1011.24 1011.42 1011.61 1011.78 1011.89 1011.94 1011.94 1011.91 1011.90 1011.91 1011.97 1012.07 1012.18 1012.28
1008.05 1008.75 1009.42 1009.93 1010.21 1010.21 1009.93 1009.45 1008.86 1008.30 1007.88 1007.70 1007.78 1008.10 1008.58 1009.13 1009.63 1010.01 1010.23 1010.30 1010.27 1010.21 1010.18 1010.24 1010.40 1010.63 1010.90 1011.14 1011.30 1011.39 1011.39 1011.35 1011.31 1011.32 1011.39 1011.52 1011.70 1011.89 1012.05 1012.14 1012.19 1012.18 1012.17 1012.17 1012.21 1012.29 1012.40 1012.51 1012.61
1008.45 1009.15 1009.76 1010.15 1010.27 1010.10 1009.66 1009.06 1008.39 1007.80 1007.39 1007.23 1007.34 1007.68 1008.18 1008.72 1009.21 1009.59 1009.82 1009.92 1009.95 1009.96 1010.03 1010.18 1010.42 1010.73 1011.04 1011.31 1011.51 1011.60 1011.62 1011.60 1011.58 1011.60 1011.68 1011.82 1011.99 1012.17 1012.30 1012.39 1012.42 1012.41 1012.41 1012.42 1012.48 1012.58 1012.70 1012.82 1012.91
1008.88 1009.53 1010.03 1010.27 1010.23 1009.90 1009.34 1008.66 1007.97 1007.40 1007.03 1006.92 1007.07 1007.42 1007.90 1008.41 1008.86 1009.20 1009.41 1009.52 1009.59 1009.67 1009.82 1010.06 1010.39 1010.76 1011.12 1011.43 1011.65 1011.77 1011.82 1011.81 1011.82 1011.86 1011.95 1012.10 1012.27 1012.43 1012.55 1012.63 1012.65 1012.65 1012.65 1012.68 1012.76 1012.87 1013.00 1013.12 1013.21
1009.27 1009.84 1010.20 1010.28 1010.09 1009.63 1009.01 1008.30 1007.65 1007.14 1006.85 1006.81 1007.00 1007.35 1007.80 1008.24 1008.62 1008.89 1009.06 1009.17 1009.26 1009.39 1009.61 1009.92 1010.32 1010.74 1011.15 1011.49 1011.74 1011.88 1011.95 1011.97 1012.00 1012.06 1012.18 1012.34 1012.51 1012.68 1012.80 1012.87 1012.90 1012.90 1012.91 1012.95 1013.03 1013.15 1013.29 1013.41 1013.50
1009.59 1010.03 1010.24 1010.17 1009.85 1009.32 1008.67 1008.01 1007.43 1007.03 1006.84 1006.88 1007.11 1007.46 1007.86 1008.22 1008.51 1008.71 1008.83 1008.91 1009.01 1009.17 1009.44 1009.80 1010.24 1010.71 1011.14 1011.50 1011.76 1011.92 1012.00 1012.06 1012.12 1012.21 1012.36 1012.54 1012.73 1012.91 1013.04 1013.12 1013.16 1013.17 1013.19 1013.23 1013.31 1013.43 1013.56 1013.68 1013.77
1009.78 1010.09 1010.15 1009.95 1009.54 1008.97 1008.35 1007.76 1007.30 1007.02 1006.95 1007.07 1007.33 1007.67 1008.01 1008.30 1008.51 1008.63 1008.70 1008.75 1008.85 1009.04 1009.33 1009.72 1010.18 1010.66 1011.09 1011.46 1011.72 1011.89 1012.00 1012.08 1012.18 1012.31 1012.49 1012.70 1012.92 1013.12 1013.28 1013.38 1013.43 1013.46 1013.48 1013.52 1013.59 1013.69 1013.80 1013.92 1014.02
1009.82 1010.01 1009.95 1009.66 1009.19 1008.62 1008.05 1007.56 1007.22 1007.06 1007.09 1007.28 1007.56 1007.88 1008.17 1008.40 1008.54 1008.61 1008.64 1008.68 1008.78 1008.98 1009.28 1009.68 1010.14 1010.60 1011.02 1011.38 1011.64 1011.82 1011.95 1012.06 1012.20 1012.37 1012.59 1012.84 1013.09 1013.33 1013.51 1013.64 1013.71 1013.74 1013.76 1013.79 1013.84 1013.92 1014.02 1014.12 1014.23
1009.74 1009.83 1009.67 1009.31 1008.83 1008.29 1007.79 1007.39 1007.15 1007.09 1007.19 1007.41 1007.70 1007.99 1008.24 1008.42 1008.53 1008.58 1008.60 1008.65 1008.77 1008.98 1009.28 1009.67 1010.10 1010.54 1010.93 1011.27 1011.52 1011.72 1011.87 1012.02 1012.20 1012.41 1012.67 1012.96 1013.25 1013.51 1013.72 1013.87 1013.96 1014.00 1014.03 1014.04 1014.07 1014.12 1014.20 1014.29 1014.40
1009.56 1009.57 1009.36 1008.98 1008.51 1008.01 1007.58 1007.26 1007.09 1007.08 1007.20 1007.41 1007.67 1007.93 1008.15 1008.31 1008.41 1008.47 1008.53 1008.61 1008.76 1008.98 1009.29 1009.66 1010.06 1010.46 1010.83 1011.14 1011.40 1011.61 1011.79 1011.98 1012.20 1012.45 1012.75 1013.06 1013.37 1013.66 1013.89 1014.06 1014.16 1014.22 1014.25 1014.26 1014.27 1014.30 1014.36 1014.45 1014.56
1009.31 1009.29 1009.06 1008.70 1008.26 1007.82 1007.44 1007.17 1007.02 1007.01 1007.10 1007.27 1007.47 1007.68 1007.87 1008.02 1008.15 1008.26 1008.38 1008.52 1008.72 1008.97 1009.28 1009.63 1010.00 1010.36 1010.71 1011.01 1011.27 1011.51 1011.73 1011.96 1012.21 1012.49 1012.81 1013.14 1013.46 1013.75 1014.00 1014.18 1014.31 1014.38 1014.42 1014.44 1014.45 1014.48 1014.54 1014.62 1014.74
1009.02 1009.00 1008.80 1008.48 1008.10 1007.72 1007.38 1007.13 1006.97 1006.90 1006.92 1007.00 1007.12 1007.26 1007.42 1007.58 1007.75 1007.93 1008.13 1008.35 1008.61 1008.90 1009.21 1009.55 1009.90 1010.25 1010.58 1010.88 1011.17 1011.43 1011.69 1011.96 1012.24 1012.54 1012.86 1013.18 1013.50 1013.79 1014.04 1014.23 1014.38 1014.48 1014.55 1014.59 1014.63 1014.68 1014.75 1014.85 1014.99
1008.71 1008.72 1008.58 1008.33 1008.02 1007.71 1007.41 1007.15 1006.94 1006.79 1006.69 1006.65 1006.66 1006.73 1006.85 1007.03 1007.25 1007.51 1007.80 1008.10 1008.42 1008.75 1009.09 1009.43 1009.77 1010.11 1010.45 1010.77 1011.09 1011.40 1011.70 1012.00 1012.30 1012.60 1012.90 1013.20 1013.49 1013.77 1014.01 1014.22 1014.39 1014.53 1014.65 1014.74 1014.83 1014.92 1015.03 1015.17 1015.34
1008.38 1008.44 1008.37 1008.22 1008.01 1007.76 1007.49 1007.22 1006.94 1006.68 1006.45 1006.27 1006.17 1006.16 1006.24 1006.43 1006.70 1007.03 1007.40 1007.79 1008.17 1008.55 1008.91 1009.26 1009.62 1009.97 1010.34 1010.70 1011.07 1011.42 1011.76 1012.09 1012.38 1012.67 1012.94 1013.20 1013.45 1013.70 1013.94 1014.16 1014.37 1014.57 1014.74 1014.91 1015.07 1015.23 1015.40 1015.58 1015.79
1008.01 1008.13 1008.16 1008.11 1008.00 1007.83 1007.60 1007.31 1006.96 1006.59 1006.23 1005.91 1005.69 1005.60 1005.64 1005.83 1006.13 1006.53 1006.97 1007.43 1007.87 1008.29 1008.69 1009.07 1009.45 1009.85 1010.26 1010.68 1011.10 1011.51 1011.89 1012.22 1012.51 1012.76 1012.99 1013.20 1013.41 1013.62 1013.85 1014.10 1014.36 1014.62 1014.87 1015.12 1015.36 1015.60 1015.83 1016.08 1016.33
1007.59 1007.78 1007.90 1007.97 1007.97 1007.88 1007.69 1007.38 1006.98 1006.50 1006.02 1005.58 1005.25 1005.08 1005.08 1005.26 1005.59 1006.03 1006.53 1007.04 1007.53 1008.00 1008.43 1008.85 1009.29 1009.74 1010.22 1010.71 1011.20 1011.66 1012.07 1012.41 1012.69 1012.90 1013.07 1013.22 1013.39 1013.58 1013.81 1014.09 1014.39 1014.71 1015.05 1015.38 1015.70 1016.01 1016.32 1016.62 1016.91
1007.13 1007.38 1007.61 1007.79 1007.90 1007.88 1007.73 1007.41 1006.95 1006.39 1005.80 1005.25 1004.83 1004.59 1004.56 1004.73 1005.08 1005.56 1006.09 1006.64 1007.18 1007.68 1008.16 1008.63 1009.13 1009.65 1010.21 1010.78 1011.34 1011.86 1012.30 1012.65 1012.90 1013.07 1013.20 1013.30 1013.43 1013.61 1013.84 1014.15 1014.50 1014.89 1015.29 1015.69 1016.08 1016.45 1016.81 1017.15 1017.47
1006.64 1006.96 1007.29 1007.58 1007.78 1007.83 1007.71 1007.38 1006.86 1006.22 1005.54 1004.90 1004.41 1004.11 1004.05 1004.22 1004.59 1005.09 1005.65 1006.24 1006.81 1007.35 1007.87 1008.41 1008.97 1009.58 1010.22 1010.87 1011.51 1012.08 1012.56 1012.91 1013.15 1013.29 1013.38 1013.45 1013.56 1013.73 1013.98 1014.31 1014.71 1015.15 1015.60 1016.05 1016.48 1016.88 1017.26 1017.61 1017.95
1006.14 1006.55 1006.98 1007.37 1007.65 1007.75 1007.63 1007.27 1006.70 1005.98 1005.21 1004.50 1003.94 1003.61 1003.53 1003.70 1004.08 1004.61 1005.21 1005.82 1006.42 1007.01 1007.58 1008.17 1008.80 1009.49 1010.21 1010.95 1011.66 1012.28 1012.79 1013.17 1013.40 1013.53 1013.60 1013.66 1013.76 1013.94 1014.21 1014.57 1015.00 1015.48 1015.95 1016.42 1016.85 1017.26 1017.62 1017.97 1018.30
1005.70 1006.20 1006.73 1007.21 1007.54 1007.67 1007.53 1007.11 1006.46 1005.65 1004.79 1004.01 1003.41 1003.05 1002.97 1003.16 1003.56 1004.12 1004.75 1005.40 1006.04 1006.66 1007.27 1007.92 1008.62 1009.37 1010.17 1010.98 1011.75 1012.43 1012.98 1013.38 1013.63 1013.77 1013.84 1013.91 1014.03 1014.22 1014.52 1014.90 1015.35 1015.84 1016.32 1016.77 1017.18 1017.55 1017.89 1018.20 1018.50
1005.32 1005.95 1006.58 1007.13 1007.50 1007.61 1007.42 1006.92 1006.16 1005.25 1004.30 1003.45 1002.80 1002.43 1002.37 1002.58 1003.03 1003.63 1004.30 1004.99 1005.66 1006.32 1006.97 1007.66 1008.40 1009.21 1010.06 1010.93 1011.75 1012.48 1013.08 1013.51 1013.79 1013.96 1014.06 1014.16 1014.30 1014.53 1014.85 1015.25 1015.71 1016.18 1016.64 1017.06 1017.43 1017.75 1018.03 1018.30 1018.57
1005.03 1005.79 1006.53 1007.14 1007.52 1007.59 1007.31 1006.70 1005.82 1004.79 1003.74 1002.83 1002.15 1001.78 1001.75 1002.01 1002.51 1003.17 1003.89 1004.62 1005.33 1006.01 1006.69 1007.40 1008.17 1009.01 1009.89 1010.79 1011.65 1012.42 1013.06 1013.54 1013.86 1014.08 1014.22 1014.36 1014.54 1014.80 1015.14 1015.55 1016.00 1016.46 1016.89 1017.26 1017.58 1017.84 1018.07 1018.30 1018.53
1004.81 1005.70 1006.54 1007.19 1007.57 1007.58 1007.20 1006.46 1005.45 1004.30 1003.17 1002.20 1001.50 1001.15 1001.16 1001.49 1002.05 1002.78 1003.55 1004.33 1005.07 1005.77 1006.46 1007.17 1007.94 1008.78 1009.66 1010.57 1011.45 1012.25 1012.92 1013.45 1013.82 1014.09 1014.29 1014.48 1014.70 1014.98 1015.34 1015.76 1016.20 1016.63 1017.02 1017.36 1017.63 1017.84 1018.03 1018.22 1018.43
1004.62 1005.64 1006.56 1007.24 1007.59 1007.53 1007.05 1006.19 1005.06 1003.81 1002.60 1001.60 1000.91 1000.60 1000.66 1001.06 1001.71 1002.50 1003.34 1004.16 1004.92 1005.63 1006.31 1007.00 1007.74 1008.55 1009.41 1010.31 1011.18 1011.99 1012.69 1013.25 1013.68 1014.00 1014.25 1014.49 1014.75 1015.05 1015.42 1015.83 1016.26 1016.67 1017.04 1017.34 1017.58 1017.77 1017.94 1018.11 1018.31
1004.40 1005.52 1006.50 1007.20 1007.52 1007.39 1006.82 1005.86 1004.64 1003.33 1002.09 1001.09 1000.43 1000.18 1000.32 1000.80 1001.52 1002.38 1003.27 1004.12 1004.90 1005.60 1006.26 1006.91 1007.60 1008.36 1009.17 1010.03 1010.88 1011.68 1012.38 1012.97 1013.44 1013.81 1014.11 1014.39 1014.68 1015.00 1015.38 1015.78 1016.20 1016.59 1016.95 1017.24 1017.47 1017.66 1017.83 1018.00 1018.21
1004.13 1005.31 1006.31 1007.01 1007.29 1007.11 1006.47 1005.46 1004.21 1002.88 1001.66 1000.70 1000.11 999.93 1000.15 1000.71 1001.51 1002.43 1003.36 1004.23 1005.01 1005.69 1006.31 1006.91 1007.54 1008.22 1008.97 1009.76 1010.57 1011.34 1012.05 1012.65 1013.14 1013.55 1013.89 1014.19 1014.51 1014.85 1015.22 1015.62 1016.03 1016.42 1016.77 1017.07 1017.32 1017.53 1017.72 1017.92 1018.14
1003.78 1004.96 1005.96 1006.62 1006.87 1006.66 1006.00 1004.99 1003.76 1002.48 1001.33 1000.46 999.96 999.88 1000.18 1000.81 1001.67 1002.62 1003.57 1004.45 1005.22 1005.87 1006.44 1006.98 1007.54 1008.15 1008.82 1009.54 1010.29 1011.02 1011.71 1012.31 1012.82 1013.24 1013.61 1013.94 1014.27 1014.62 1014.99 1015.39 1015.80 1016.20 1016.57 1016.89 1017.17 1017.41 1017.63 1017.86 1018.10
1003.37 1004.50 1005.44 1006.06 1006.28 1006.05 1005.42 1004.46 1003.32 1002.15 1001.13 1000.38 999.99 1000.00 1000.38 1001.07 1001.95 1002.91 1003.86 1004.72 1005.46 1006.08 1006.61 1007.09 1007.58 1008.12 1008.72 1009.37 1010.05 1010.74 1011.39 1011.97 1012.48 1012.92 1013.30 1013.65 1014.00 1014.36 1014.74 1015.15 1015.57 1015.98 1016.37 1016.72 1017.04 1017.32 1017.58 1017.83 1018.08
1002.94 1003.96 1004.81 1005.37 1005.55 1005.35 1004.78 1003.93 1002.92 1001.91 1001.05 1000.45 1000.18 1000.28 1000.71 1001.41 1002.28 1003.22 1004.14 1004.96 1005.66 1006.24 1006.73 1007.17 1007.62 1008.10 1008.64 1009.23 1009.85 1010.49 1011.10 1011.66 1012.16 1012.60 1013.00 1013.36 1013.73 1014.10 1014.50 1014.92 1015.36 1015.79 1016.21 1016.60 1016.95 1017.26 1017.55 1017.81 1018.06
1002.53 1003.41 1004.13 1004.61 1004.77 1004.60 1004.12 1003.41 1002.58 1001.76 1001.07 1000.62 1000.46 1000.62 1001.07 1001.75 1002.58 1003.46 1004.31 1005.07 1005.73 1006.28 1006.75 1007.17 1007.60 1008.05 1008.55 1009.09 1009.68 1010.27 1010.84 1011.38 1011.87 1012.31 1012.72 1013.10 1013.48 1013.88 1014.30 1014.75 1015.21 1015.66 1016.11 1016.52 1016.90 1017.23 1017.53 1017.79 1018.03
Thickness
5803 5806 5805 5793 5772 5759 5756 5767 5776 5776 5778 5786 5789 5785 5774 5765 5756 5745 5766 5778 5777 5775 5772 5770 5769 5768 5768 5767 5767 5767 5767 5766 5765 5764 5763 5763 5763 5763 5763 5764 5764 5764 5765 5765 5765 5765 5765 5765 5765
5805 5807 5797 5781 5759 5746 5752 5768 5769 5774 5780 5787 5787 5784 5775 5766 5769 5766 5770 5776 5777 5774 5771 5768 5766 5765 5765 5765 5765 5766 5765 5763 5762 5761 5760 5760 5760 5760 5760 5761 5761 5761 5761 5761 5761 5761 5761 5761 5761
5803 5803 5784 5770 5758 5749 5752 5767 5771 5779 5786 5785 5780 5779 5771 5763 5769 5768 5772 5776 5775 5772 5768 5765 5764 5763 5762 5763 5763 5763 5762 5761 5759 5758 5757 5757 5757 5757 5757 5757 5757 5758 5758 5758 5758 5758 5758 5758 5758
5799 5788 5779 5762 5752 5762 5766 5771 5777 5775 5779 5783 5779 5768 5766 5772 5772 5771 5775 5775 5772 5769 5765 5762 5761 5760 5759 5759 5760 5760 5759 5758 5757 5756 5754 5754 5754 5753 5753 5754 5753 5754 5754 5755 5755 5755 5754 5754 5755
5794 5776 5759 5752 5755 5767 5775 5780 5779 5771 5771 5775 5774 5760 5756 5769 5774 5773 5773 5773 5770 5766 5763 5760 5759 5758 5757 5756 5755 5755 5754 5755 5754 5753 5750 5750 5750 5750 5750 5750 5750 5750 5750 5751 5751 5751 5751 5750 5751
5777 5770 5749 5743 5752 5766 5774 5779 5777 5771 5770 5772 5769 5759 5753 5766 5768 5769 5770 5769 5768 5765 5762 5758 5756 5755 5754 5753 5752 5751 5750 5750 5750 5748 5747 5747 5746 5746 5746 5746 5746 5746 5746 5747 5747 5747 5747 5747 5747
5767 5758 5748 5749 5750 5757 5768 5778 5772 5766 5765 5769 5773 5758 5753 5760 5765 5768 5768 5767 5766 5764 5761 5758 5755 5753 5752 5750 5749 5748 5747 5746 5745 5744 5744 5744 5743 5743 5742 5742 5742 5742 5742 5742 5742 5742 5742 5743 5743
5776 5759 5749 5750 5748 5750 5768 5773 5774 5768 5764 5775 5774 5756 5749 5757 5765 5765 5764 5762 5762 5761 5760 5758 5756 5753 5751 5748 5747 5745 5744 5743 5743 5742 5741 5741 5740 5739 5739 5738 5738 5738 5738 5738 5738 5738 5738 5739 5739
5778 5750 5740 5747 5748 5752 5767 5765 5770 5775 5768 5767 5768 5764 5761 5763 5763 5759 5756 5754 5755 5756 5757 5756 5755 5753 5750 5748 5745 5743 5742 5741 5741 5740 5739 5738 5738 5737 5736 5735 5735 5734 5734 5734 5734 5734 5734 5735 5735
5765 5741 5743 5758 5761 5758 5763 5762 5764 5761 5755 5754 5755 5759 5761 5759 5755 5751 5748 5746 5747 5749 5751 5752 5752 5750 5748 5746 5743 5742 5741 5739 5739 5739 5738 5737 5736 5735 5733 5732 5731 5731 5731 5731 5731 5731 5731 5731 5732
5763 5748 5754 5762 5766 5764 5760 5759 5763 5753 5743 5748 5747 5750 5753 5752 5749 5747 5745 5745 5745 5746 5747 5748 5748 5747 5745 5744 5741 5740 5739 5738 5737 5737 5736 5735 5733 5732 5730 5729 5728 5728 5728 5728 5728 5729 5728 5729 5729
5759 5758 5761 5761 5765 5762 5757 5756 5752 5749 5747 5755 5754 5753 5750 5747 5744 5744 5742 5742 5743 5743 5743 5745 5745 5744 5743 5741 5739 5738 5736 5735 5735 5734 5733 5732 5730 5730 5729 5728 5727 5726 5726 5726 5726 5725 5726 5726 5726
5754 5754 5760 5761 5761 5759 5756 5750 5746 5744 5752 5754 5752 5748 5744 5743 5743 5744 5744 5743 5742 5740 5740 5741 5741 5740 5739 5738 5736 5735 5733 5732 5732 5731 5730 5729 5728 5727 5726 5725 5723 5723 5723 5723 5722 5722 5721 5721 5721
5755 5755 5756 5757 5756 5755 5748 5745 5743 5741 5749 5747 5745 5741 5741 5740 5741 5740 5740 5739 5738 5737 5737 5738 5737 5737 5736 5734 5732 5731 5730 5729 5728 5727 5727 5726 5725 5724 5722 5721 5720 5719 5719 5719 5719 5718 5717 5716 5716
5759 5748 5746 5750 5751 5751 5746 5732 5735 5743 5745 5740 5739 5738 5737 5737 5738 5736 5736 5736 5737 5736 5736 5735 5735 5734 5732 5730 5729 5728 5726 5725 5724 5723 5723 5723 5721 5720 5719 5717 5716 5716 5716 5715 5714 5714 5713 5711 5710
5750 5738 5727 5742 5747 5748 5735 5715 5732 5742 5738 5732 5733 5733 5732 5733 5735 5735 5735 5735 5735 5734 5733 5732 5732 5731 5729 5727 5726 5724 5722 5721 5719 5719 5719 5719 5718 5716 5715 5713 5712 5712 5712 5711 5709 5708 5706 5705 5704
5734 5724 5725 5734 5747 5744 5732 5718 5731 5740 5736 5729 5729 5729 5728 5728 5730 5732 5732 5732 5732 5731 5729 5728 5728 5726 5725 5724 5722 5720 5719 5717 5715 5715 5714 5714 5713 5712 5711 5709 5708 5708 5707 5705 5705 5703 5701 5699 5699
5723 5726 5728 5729 5741 5739 5727 5723 5730 5736 5733 5728 5727 5726 5724 5723 5725 5728 5728 5728 5728 5727 5726 5724 5723 5722 5721 5720 5718 5715 5714 5712 5711 5710 5709 5709 5709 5708 5707 5705 5704 5703 5701 5700 5699 5698 5697 5696 5695
5736 5730 5727 5733 5744 5734 5724 5722 5726 5731 5728 5725 5723 5722 5721 5720 5723 5724 5724 5724 5723 5722 5721 5719 5718 5717 5716 5714 5711 5708 5706 5706 5706 5705 5704 5703 5703 5703 5701 5700 5699 5698 5696 5695 5694 5693 5691 5691 5692
5733 5726 5726 5733 5741 5732 5721 5720 5727 5728 5724 5724 5722 5719 5718 5718 5718 5718 5719 5718 5718 5718 5717 5715 5714 5713 5712 5710 5708 5706 5704 5703 5702 5700 5698 5698 5697 5697 5696 5695 5693 5692 5691 5690 5689 5688 5686 5685 5686
5728 5725 5724 5724 5731 5732 5719 5710 5717 5724 5726 5724 5723 5721 5719 5717 5714 5714 5713 5713 5713 5713 5713 5712 5711 5709 5708 5706 5704 5702 5699 5697 5695 5693 5692 5693 5692 5691 5691 5690 5688 5687 5686 5684 5683 5683 5681 5678 5680
5719 5733 5730 5725 5715 5710 5716 5693 5708 5720 5717 5718 5717 5717 5716 5715 5714 5712 5711 5709 5709 5709 5710 5709 5708 5706 5704 5703 5699 5695 5690 5688 5688 5688 5687 5687 5687 5686 5685 5684 5683 5682 5681 5679 5679 5679 5677 5675 5672
5726 5734 5730 5724 5716 5709 5714 5701 5704 5717 5709 5712 5714 5715 5714 5713 5712 5710 5708 5707 5708 5707 5706 5705 5704 5702 5700 5698 5695 5692 5688 5686 5685 5684 5683 5682 5682 5681 5679 5678 5678 5677 5675 5674 5674 5673 5672 5671 5669
5734 5729 5725 5724 5713 5694 5709 5702 5699 5710 5712 5713 5715 5714 5713 5712 5711 5709 5707 5705 5704 5704 5702 5701 5699 5697 5696 5694 5692 5689 5685 5683 5680 5678 5676 5675 5675 5675 5674 5673 5672 5671 5670 5669 5669 5668 5668 5667 5666
5726 5709 5694 5692 5689 5693 5717 5705 5701 5717 5722 5719 5716 5714 5713 5710 5708 5705 5703 5701 5700 5699 5697 5696 5694 5692 5691 5690 5688 5686 5683 5681 5677 5674 5672 5670 5668 5667 5668 5667 5666 5666 5665 5665 5664 5663 5662 5662 5662
5719 5712 5689 5679 5686 5698 5712 5701 5705 5720 5721 5721 5718 5714 5711 5707 5705 5703 5701 5699 5697 5695 5693 5691 5689 5687 5686 5685 5683 5682 5680 5677 5674 5671 5669 5667 5665 5664 5664 5663 5662 5661 5660 5660 5660 5658 5658 5658 5658
5712 5713 5719 5703 5700 5693 5699 5705 5708 5716 5713 5713 5712 5709 5706 5704 5702 5700 5699 5697 5694 5692 5690 5688 5685 5683 5681 5680 5678 5677 5675 5672 5670 5668 5666 5664 5662 5661 5659 5658 5657 5656 5656 5655 5654 5653 5653 5653 5654
5722 5717 5708 5695 5682 5678 5692 5697 5694 5699 5703 5706 5705 5702 5702 5701 5699 5697 5695 5693 5691 5689 5687 5686 5683 5679 5677 5675 5673 5671 5669 5667 5665 5663 5660 5659 5657 5656 5654 5653 5652 5651 5650 5650 5649 5649 5649 5649 5649
5712 5709 5705 5699 5695 5679 5672 5683 5711 5706 5706 5703 5703 5702 5700 5697 5695 5693 5691 5690 5688 5685 5683 5680 5677 5675 5672 5670 5668 5665 5663 5661 5659 5657 5655 5653 5652 5651 5649 5648 5648 5647 5646 5645 5645 5644 5645 5644 5645
5717 5711 5704 5686 5685 5690 5678 5680 5714 5711 5708 5704 5700 5699 5698 5695 5693 5691 5688 5685 5682 5679 5677 5674 5672 5669 5667 5666 5664 5660 5658 5655 5653 5651 5649 5648 5646 5645 5645 5643 5643 5642 5641 5640 5640 5639 5640 5640 5640